Regional Weather Roundup
Issued by NWS

Home | Current Version | Previous Version | Text Only | Print | Product List | Glossary Off
Versions: 1 2 3 4 5 6 7 8 9 10 11 12 13 14 15 16 17 18 19 20 21 22 23 24 25 26 27 28 29 30 31 32 33 34 35 36 37 38 39 40 41 42 43 44 45 46 47 48 49 50

000
ASUS43 KLMK 311002
RWRKY
KENTUCKY REGIONAL WEATHER ROUNDUP
NATIONAL WEATHER SERVICE LOUISVILLE KY
600 AM EDT FRI OCT 31 2014

NOTE "FAIR" INDICATES FEW OR NO CLOUDS BELOW 12,000 FEET
WITH NO SIGNIFICANT WEATHER AND/OR OBSTRUCTIONS TO VISIBILITY.

KYZ001>023-026-027-061>063-070>075-311100-
WESTERN AND SOUTH CENTRAL KENTUCKY

CITY           SKY/WX    TMP DP  RH WIND       PRES   REMARKS
PADUCAH        CLOUDY    51  49  92 CALM      30.00S
HENDERSON      CLOUDY    48  43  81 NE7       30.01F
OWENSBORO      LGT RAIN  49  44  83 N7        30.02S
HOPKINSVILLE   LGT RAIN  50  49  98 SW2       29.99S
BOWLING GREEN  CLOUDY    48  43  82 CALM      30.00R
GLASGOW        CLOUDY    46  46 100 CALM      29.98S
$$

KYZ024-025-028>034-038-045-046-053-311100-
NORTH CENTRAL KENTUCKY

CITY           SKY/WX    TMP DP  RH WIND       PRES   REMARKS
LOUISVILLE/SDF LGT RAIN  48  42  80 VRB5      30.00S
LOUISVILLE/LOU LGT RAIN  47  44  90 CALM      30.00F
FORT KNOX      DRIZZLE   45  43  91 W2        29.98F
$$

KYZ035>037-039>044-047>052-055>060-089>105-311100-
NORTHEAST KENTUCKY

CITY           SKY/WX    TMP DP  RH WIND       PRES   REMARKS
LEXINGTON      LGT RAIN  46  41  82 CALM      29.99F
COVINGTON      CLOUDY    44  40  85 CALM      29.98F
FRANKFORT      CLOUDY    43  40  89 CALM      29.99S
$$

KYZ054-064>069-076>088-106>120-311100-
SOUTHEAST KENTUCKY

CITY           SKY/WX    TMP DP  RH WIND       PRES   REMARKS
JACKSON        CLOUDY    41  33  73 CALM      29.98F
LONDON         LGT RAIN  42  38  85 CALM      29.98
SOMERSET       CLOUDY    39  39 100 CALM      30.01S
MIDDLESBORO    CLOUDY    37  37 100 CALM      30.00S FOG
MONTICELLO     PTSUNNY   42  41  97 CALM      30.00F
$$




USA.gov is the U.S. government's official web portal to all federal, state and local government web resources and services.